Wind_Speed
34 32 32 31 35 39 41 43 42 42 43 45 41 37 35 34 32 30 29 30 25 24 21 19 16 14 12 11 9 8 8 5 8 7 12 10 9 10 10 7 8 10 6 5 4
34 34 31 31 30 30 37 39 42 41 41 41 41 40 37 35 34 33 34 29 26 24 23 19 17 13 12 11 11 10 10 8 10 11 7 11 7 11 10 9 9 8 8 7 5
42 36 36 31 30 29 28 37 38 38 42 41 40 37 37 35 35 37 33 30 27 24 22 20 17 15 13 12 12 13 12 12 15 18 12 11 14 11 8 7 9 11 13 10 8
43 39 37 34 33 29 27 26 31 34 36 38 39 39 36 34 31 35 34 32 29 25 23 21 18 18 16 14 14 15 18 16 20 21 17 16 12 15 15 12 17 17 13 12 13
42 46 41 40 36 34 27 26 23 27 33 33 34 35 37 37 39 34 26 31 31 29 25 24 22 19 20 17 14 17 13 20 21 18 18 20 20 19 20 22 22 24 19 18 18
38 45 42 40 40 37 34 26 24 22 24 29 31 32 33 35 37 34 35 32 26 29 29 27 26 24 22 23 18 16 18 21 23 22 22 23 23 25 25 23 28 28 25 24 24
38 39 44 40 38 40 32 32 25 22 20 21 26 30 33 32 33 30 29 28 29 26 24 33 33 29 25 26 26 27 21 24 29 25 27 28 31 33 30 30 30 30 27 27 29
39 35 41 42 37 38 36 33 23 30 24 20 20 25 32 32 32 28 26 27 25 25 21 23 32 31 28 27 26 27 27 24 24 27 28 30 36 31 29 30 34 33 31 31 33
43 33 35 35 40 36 39 37 31 28 25 24 23 21 26 32 30 28 26 25 25 25 25 24 18 29 29 24 21 22 16 21 22 20 21 30 35 29 27 26 31 31 32 32 33
49 44 36 36 35 37 36 41 38 26 32 31 26 21 21 18 28 25 23 25 24 23 25 24 23 24 26 26 18 12 21 19 20 22 26 29 33 28 20 28 30 31 31 31 29
48 40 44 46 35 38 37 39 38 38 28 34 27 30 8 12 14 19 21 23 23 25 27 28 29 33 28 23 24 12 18 16 19 22 22 26 27 34 29 34 36 34 31 27 25
41 43 43 39 37 31 38 43 36 44 36 35 34 24 19 13 10 15 19 25 25 28 25 25 34 31 26 23 23 26 20 16 16 19 26 28 30 31 31 35 37 34 29 27 26
35 45 40 39 41 39 38 41 39 35 26 40 30 22 24 17 13 14 16 20 26 26 26 28 18 26 22 24 23 25 23 21 16 14 20 24 38 36 36 36 36 34 32 31 28
31 44 41 36 37 45 37 39 43 44 28 28 41 34 33 28 23 17 18 20 22 25 20 22 21 14 29 25 24 23 21 22 18 13 12 10 11 23 15 23 25 25 25 24 27
36 34 45 46 29 41 39 36 38 35 7 21 37 37 39 36 23 26 21 24 24 21 28 20 24 22 23 27 23 22 16 17 17 21 19 24 15 11 9 25 29 26 25 24 24
33 30 36 46 36 28 43 28 42 28 9 15 28 40 41 37 25 25 25 24 22 21 25 28 15 24 29 23 21 17 17 16 15 15 14 24 20 18 21 24 18 17 19 26 31
31 28 31 39 31 28 39 31 24 18 17 18 27 35 43 44 38 31 33 32 27 18 24 26 27 22 17 21 22 25 20 7 5 6 7 5 21 32 9 11 13 20 18 17 21
31 29 25 26 28 27 24 37 13 11 36 23 35 31 39 36 43 41 35 36 36 32 17 20 12 31 27 27 27 31 31 10 6 4 3 22 14 18 10 23 15 22 20 20 21
29 29 30 27 27 30 28 26 16 15 28 28 23 31 35 37 32 40 45 46 43 42 23 21 18 12 25 31 28 28 35 27 12 16 2 11 15 16 19 15 15 21 26 28 26
31 29 27 28 29 29 30 26 19 23 8 18 30 34 36 44 33 37 39 44 48 46 38 12 8 14 23 19 32 20 21 22 24 4 5 10 21 22 5 12 19 22 18 24 24
31 26 25 27 30 28 19 23 17 27 27 15 25 33 38 41 47 42 38 36 38 50 43 37 19 13 29 30 34 36 24 18 18 16 4 2 10 17 18 18 18 20 20 25 25
32 26 25 28 27 26 17 24 27 22 29 34 13 17 35 41 44 41 45 45 33 33 42 40 22 16 31 27 24 33 34 34 16 13 17 22 33 32 25 21 19 13 19 20 21
31 22 20 21 24 28 26 10 17 25 32 31 16 7 25 39 40 49 48 43 29 28 39 42 25 11 10 22 24 35 35 37 37 30 23 15 39 31 24 19 31 35 22 25 30
26 22 18 23 28 24 24 19 12 11 14 32 39 21 9 14 49 35 49 43 35 30 36 36 35 36 31 30 25 33 38 40 37 27 35 36 56 48 38 21 18 22 24 25 28
23 20 26 23 28 26 25 21 22 23 20 24 32 37 27 10 22 38 45 36 33 36 28 35 37 39 46 37 21 21 28 37 42 47 31 48 43 54 48 43 38 36 33 30 36
20 15 22 22 13 18 25 33 32 31 31 34 33 39 34 28 16 15 21 41 41 39 37 43 37 39 41 42 41 42 23 25 32 38 45 53 48 47 46 43 38 37 37 33 38
14 18 12 11 18 21 24 23 25 21 29 31 30 27 32 39 25 14 23 31 37 43 43 44 47 25 30 40 35 28 45 44 42 44 39 40 47 44 50 48 45 46 41 40 43
Wind_Direction
221 224 229 235 235 233 232 232 232 232 234 233 240 239 240 240 241 241 239 241 241 243 245 246 245 243 242 240 237 226 202 212 209 201 212 234 206 199 201 206 196 202 223 218 206
216 222 227 226 233 237 235 233 233 232 234 235 236 239 241 241 240 242 244 243 243 242 244 245 249 244 239 235 232 218 203 229 176 196 230 224 197 214 206 227 225 222 214 208 216
220 221 223 222 225 232 238 234 234 233 233 234 236 236 240 240 243 241 243 244 242 242 245 244 244 242 235 232 221 217 205 230 214 210 206 227 211 237 195 226 267 249 228 233 251
222 221 222 227 225 228 233 240 239 234 235 234 235 237 237 237 239 244 239 241 242 240 240 241 238 239 232 232 233 223 215 213 227 228 236 245 221 234 220 213 220 225 252 252 256
223 224 225 223 225 227 226 233 237 238 236 236 235 236 236 237 236 237 240 239 240 239 237 234 232 234 234 231 231 230 227 227 234 238 238 239 245 240 234 229 232 247 257 264 264
225 223 225 225 225 222 228 228 234 239 241 238 238 237 237 237 239 238 242 243 240 239 237 235 232 228 229 230 221 234 217 244 236 239 240 246 246 246 247 248 251 252 255 260 263
220 226 224 226 225 231 216 226 231 232 238 240 238 238 238 234 236 236 236 238 238 239 236 234 232 230 234 235 229 232 232 231 243 239 243 245 245 249 259 251 248 257 259 259 262
215 221 224 226 225 223 227 214 219 235 227 231 232 235 239 239 239 237 236 235 234 230 228 228 231 230 225 230 233 241 242 238 250 247 243 249 253 255 258 251 255 255 259 260 261
221 218 218 221 224 227 219 220 215 222 222 222 226 231 238 238 238 235 231 233 232 229 230 232 227 224 225 225 233 233 235 240 239 252 250 244 254 257 243 245 251 250 258 257 261
220 217 218 215 218 219 215 213 216 201 216 216 220 222 231 236 236 236 231 232 232 228 225 224 225 224 223 216 208 216 228 220 234 233 244 244 254 235 228 247 248 251 252 255 259
218 215 219 211 202 202 207 211 208 216 222 203 213 215 132 220 235 231 222 225 226 225 224 223 223 221 227 229 222 199 230 251 228 239 252 256 254 255 251 257 255 255 253 256 260
220 221 224 229 221 194 200 209 211 211 206 218 212 217 210 213 224 221 211 213 216 222 216 218 226 230 230 234 227 217 232 221 232 240 250 256 259 259 253 249 258 263 260 261 259
219 215 215 232 226 216 202 206 214 216 231 220 233 215 216 212 208 220 217 215 219 216 214 216 230 228 216 215 221 228 228 228 233 264 262 276 274 267 266 266 265 263 262 260 260
219 217 214 213 229 220 200 198 210 217 227 233 225 230 225 218 224 228 222 214 208 211 213 227 224 229 205 216 215 225 227 232 223 246 263 275 288 257 260 262 253 261 262 264 250
217 223 220 213 213 224 214 192 201 203 222 228 223 225 228 223 231 222 214 210 212 208 198 209 213 213 217 216 217 231 217 242 247 247 260 239 276 288 273 254 261 262 262 260 252
214 218 215 220 219 215 219 200 195 201 210 202 199 212 217 215 209 206 205 203 204 213 210 221 220 210 231 227 218 218 218 225 231 241 247 242 230 275 261 272 277 249 253 248 250
209 215 215 218 214 215 210 211 198 210 211 184 194 208 218 212 204 201 201 204 200 190 215 215 228 224 213 198 204 209 195 171 208 211 234 234 221 233 211 242 235 250 242 246 256
200 206 209 217 219 216 218 217 227 212 210 217 217 209 206 206 208 213 215 214 216 211 210 201 210 223 222 211 201 202 195 171 184 199 265 220 238 244 243 234 228 243 249 255 270
196 202 208 209 209 216 220 220 218 223 190 210 202 190 199 201 203 206 217 219 221 212 200 204 221 236 231 222 206 208 218 216 277 287 280 231 252 247 250 248 244 247 260 267 269
194 198 207 214 212 217 226 234 231 223 228 199 191 193 195 200 197 202 208 224 221 219 215 218 203 211 216 213 210 218 223 211 220 209 222 243 243 237 233 258 273 271 270 267 267
187 193 199 211 212 213 235 222 234 228 229 267 194 195 200 197 204 207 209 218 229 225 226 219 217 208 195 201 205 202 213 201 208 222 192 256 235 248 249 258 280 271 273 268 265
185 190 197 208 206 216 226 239 243 236 232 243 264 207 207 208 207 213 214 227 224 215 215 210 220 217 207 217 226 222 223 212 202 208 232 256 263 246 255 268 283 272 273 276 273
185 183 195 205 209 216 221 221 230 233 232 235 246 200 203 212 208 214 224 223 221 213 208 205 209 188 202 226 213 214 219 225 229 233 235 234 257 272 287 272 270 263 260 268 272
182 179 182 203 209 213 220 232 232 244 246 243 244 273 276 221 213 222 221 230 213 219 204 209 215 216 223 232 228 221 223 223 217 225 236 232 260 268 261 254 267 274 270 267 262
193 186 191 204 217 229 235 232 232 241 251 257 257 246 268 293 232 212 218 213 215 219 209 212 216 225 236 236 235 234 241 234 227 236 228 248 248 268 270 269 268 267 272 274 272
200 201 211 226 224 236 245 251 254 256 252 258 263 249 264 265 280 314 216 211 214 214 211 209 224 226 235 242 240 241 242 233 237 243 244 250 253 264 272 269 262 261 265 269 272
204 219 230 248 249 251 257 266 272 271 258 247 254 259 255 256 268 267 210 214 229 225 217 211 222 222 236 245 247 248 247 243 246 250 251 244 263 279 278 277 279 285 282 278 270
Height
3067 3071 3074 3078 3081 3085 3090 3095 3099 3103 3108 3113 3116 3121 3126 3130 3133 3135 3137 3140 3145 3148 3151 3153 3155 3158 3160 3163 3165 3167 3170 3172 3172 3174 3173 3176 3177 3180 3181 3182 3182 3183 3185 3185 3185
3060 3066 3070 3074 3077 3080 3084 3089 3093 3097 3102 3107 3111 3115 3121 3125 3128 3130 3132 3137 3141 3144 3148 3151 3153 3156 3157 3160 3163 3166 3168 3170 3170 3171 3171 3175 3177 3178 3181 3180 3181 3183 3184 3185 3185
3055 3060 3065 3069 3073 3077 3079 3083 3088 3092 3097 3101 3106 3110 3115 3120 3124 3124 3129 3132 3137 3141 3144 3148 3151 3153 3155 3157 3160 3162 3166 3166 3167 3169 3170 3173 3175 3177 3179 3180 3180 3180 3182 3184 3184
3048 3054 3059 3064 3069 3072 3076 3079 3083 3087 3091 3096 3101 3105 3110 3116 3121 3119 3124 3128 3133 3137 3141 3144 3148 3151 3153 3154 3156 3160 3161 3163 3163 3167 3169 3170 3173 3175 3177 3179 3179 3178 3181 3182 3183
3041 3047 3052 3058 3063 3068 3072 3076 3079 3082 3086 3091 3095 3099 3103 3109 3111 3115 3120 3125 3129 3133 3137 3141 3144 3147 3149 3152 3154 3155 3157 3159 3160 3164 3165 3166 3169 3172 3173 3175 3176 3176 3178 3179 3180
3034 3040 3046 3051 3057 3062 3068 3072 3075 3079 3081 3086 3090 3093 3098 3102 3103 3111 3116 3121 3124 3129 3133 3136 3139 3142 3144 3148 3150 3150 3154 3154 3157 3160 3161 3163 3164 3165 3170 3173 3170 3173 3175 3176 3176
3029 3034 3040 3045 3051 3057 3063 3068 3072 3076 3078 3081 3084 3088 3090 3096 3097 3104 3109 3114 3119 3124 3127 3131 3132 3138 3141 3143 3143 3146 3151 3150 3150 3156 3155 3157 3157 3159 3165 3166 3166 3167 3170 3171 3171
3023 3028 3033 3039 3045 3052 3057 3064 3067 3072 3075 3078 3080 3082 3084 3088 3094 3099 3103 3109 3114 3118 3122 3124 3129 3133 3135 3135 3140 3144 3146 3145 3147 3151 3150 3152 3148 3157 3158 3161 3160 3163 3164 3165 3165
3014 3022 3027 3033 3039 3046 3053 3060 3066 3067 3070 3073 3075 3076 3080 3083 3088 3094 3098 3104 3108 3113 3117 3122 3124 3127 3131 3133 3137 3139 3140 3141 3144 3144 3146 3144 3143 3149 3152 3152 3153 3156 3157 3159 3160
3007 3015 3021 3028 3034 3040 3047 3055 3060 3063 3064 3067 3070 3075 3073 3077 3083 3088 3094 3098 3104 3109 3113 3117 3120 3122 3125 3129 3129 3134 3137 3138 3140 3140 3139 3139 3136 3142 3143 3144 3148 3150 3152 3153 3154
3002 3008 3014 3021 3027 3033 3041 3045 3055 3059 3056 3057 3060 3066 3070 3076 3080 3083 3090 3095 3098 3103 3106 3110 3113 3112 3119 3125 3129 3133 3135 3136 3138 3138 3134 3134 3132 3134 3138 3136 3139 3142 3145 3148 3150
2995 3002 3008 3015 3019 3026 3032 3038 3047 3050 3054 3055 3057 3062 3066 3072 3077 3082 3086 3091 3092 3095 3101 3106 3103 3111 3117 3121 3125 3127 3130 3132 3135 3132 3131 3129 3125 3127 3129 3130 3132 3134 3139 3141 3143
2989 2996 3004 3009 3015 3022 3026 3036 3044 3049 3048 3048 3052 3058 3066 3072 3075 3078 3082 3085 3088 3091 3095 3098 3102 3107 3111 3115 3119 3122 3125 3129 3132 3129 3127 3126 3116 3119 3122 3123 3125 3128 3131 3133 3136
2984 2991 2999 3004 3012 3015 3021 3031 3036 3041 3046 3045 3048 3053 3060 3067 3072 3075 3079 3083 3085 3088 3095 3097 3100 3103 3106 3110 3115 3118 3123 3125 3127 3128 3126 3126 3114 3112 3114 3114 3116 3120 3122 3125 3127
2979 2985 2992 3000 3005 3011 3019 3024 3032 3038 3035 3039 3040 3048 3056 3063 3068 3071 3076 3077 3081 3086 3092 3092 3094 3098 3100 3105 3111 3113 3118 3121 3123 3124 3125 3123 3124 3103 3108 3108 3111 3115 3116 3118 3118
2974 2981 2987 2993 3001 3008 3013 3018 3028 3034 3023 3029 3031 3036 3048 3054 3062 3065 3070 3074 3079 3083 3087 3090 3091 3095 3096 3102 3107 3111 3115 3118 3120 3123 3117 3117 3121 3097 3102 3105 3107 3108 3108 3109 3110
2971 2977 2983 2990 2999 3004 3008 3011 3014 3010 3019 3022 3024 3029 3037 3045 3055 3059 3062 3066 3071 3079 3081 3086 3086 3090 3094 3098 3103 3107 3110 3115 3119 3118 3108 3109 3111 3095 3100 3101 3104 3104 3106 3106 3107
2968 2975 2980 2987 2993 2999 3004 3009 3006 3004 3012 3013 3019 3026 3032 3040 3049 3052 3059 3062 3066 3071 3074 3079 3082 3082 3087 3091 3094 3099 3102 3101 3107 3107 3103 3104 3095 3092 3093 3098 3102 3102 3101 3102 3104
2966 2973 2978 2984 2990 2996 3002 2999 3001 3007 3005 3013 3018 3022 3030 3035 3041 3047 3048 3051 3057 3061 3069 3071 3075 3076 3078 3084 3091 3094 3094 3101 3101 3101 3102 3096 3090 3090 3091 3094 3098 3098 3097 3098 3099
2962 2970 2977 2982 2987 2993 2996 2994 2997 2999 3001 3009 3010 3015 3020 3027 3035 3039 3044 3043 3048 3055 3063 3067 3071 3072 3075 3081 3085 3088 3092 3097 3098 3100 3101 3087 3087 3084 3086 3089 3091 3091 3093 3091 3094
2963 2969 2976 2979 2986 2991 2991 2995 2996 2999 3006 3008 3006 3009 3015 3021 3025 3028 3032 3038 3041 3047 3056 3062 3065 3070 3070 3068 3072 3081 3084 3086 3089 3089 3087 3084 3078 3079 3083 3084 3083 3085 3087 3085 3087
2960 2967 2972 2978 2986 2988 2990 2991 2994 3000 3008 3007 3005 3002 3009 3014 3020 3025 3025 3028 3034 3042 3044 3054 3059 3063 3063 3067 3070 3072 3073 3078 3079 3080 3081 3081 3068 3076 3078 3078 3081 3082 3080 3080 3082
2959 2968 2974 2979 2983 2986 2990 2992 2994 2998 3002 3003 3002 3000 3005 3009 3016 3018 3020 3025 3030 3034 3037 3045 3048 3056 3061 3062 3061 3063 3067 3071 3075 3077 3075 3079 3055 3068 3069 3071 3073 3076 3077 3075 3075
2963 2968 2974 2977 2980 2984 2989 2991 2992 2992 2993 2994 2998 3001 2999 2999 3005 3008 3014 3019 3025 3029 3035 3040 3040 3041 3041 3043 3052 3055 3058 3060 3065 3067 3063 3065 3051 3059 3064 3067 3069 3069 3071 3072 3071
2964 2968 2971 2974 2978 2982 2986 2989 2992 2993 2993 2996 2999 2999 3000 2998 2998 3002 3007 3014 3020 3024 3029 3033 3032 3036 3035 3043 3048 3048 3050 3054 3057 3055 3057 3050 3055 3046 3056 3059 3063 3065 3064 3064 3063
2965 2970 2973 2976 2979 2981 2983 2982 2985 2989 2990 2988 2992 2996 2996 2997 2997 2991 3006 3008 3009 3016 3020 3024 3025 3030 3030 3033 3038 3040 3044 3045 3044 3045 3050 3046 3048 3044 3048 3051 3054 3055 3057 3057 3054
2968 2971 2974 2975 2976 2978 2978 2978 2979 2983 2983 2985 2985 2983 2991 2993 2993 2993 2995 3000 3005 3007 3011 3017 3019 3024 3023 3026 3031 3034 3028 3031 3037 3037 3038 3040 3036 3041 3035 3038 3041 3041 3043 3043 3042